Weather Roundup
Issued by NWS Springfield, MO

Home | Current Version | Previous Version | Text Only | Print | Product List | Glossary On
Versions: 1 2 3 4 5 6 7 8 9 10 11 12 13 14 15 16 17 18 19 20 21 22 23 24 25 26 27 28 29 30 31 32 33 34 35 36 37 38 39 40 41 42 43 44 45 46 47 48 49 50
000
NZUS99 KSGF 171107
HRRSGF

HOURLY WEATHER
NATIONAL WEATHER SERVICE SPRINGFIELD MO
600 AM CDT WED SEP 17 2014

......SGF CWA......

CITY           SKY/WX    TMP DP  RH WIND       PRES   REMARKS
SPRINGFIELD    FOG       65  64  97 S10       29.95F VSB 1
JOPLIN         MOCLDY    69  67  93 S14       29.92F
WEST PLAINS    CLOUDY    63  58  83 SE7       30.03S
ROLLA          CLOUDY    56  53  90 SE12      29.96F
OSAGE BEACH    CLOUDY    61  57  88 SE6       29.96F
BRANSON        FOG       64  64 100 SE6       30.00F VSB 1/4

......SURROUNDING SGF CWA......

CITY           SKY/WX    TMP DP  RH WIND       PRES   REMARKS
CHANUTE        CLOUDY    69  68  96 SW9       29.90F FOG
PARSONS        CLOUDY    69  68  96 S10       29.92F FOG
COFFEYVILLE    CLOUDY    69  68  96 S13       29.91F FOG
EMPORIA        PTCLDY    64  64 100 SW3       29.89F FOG
GROVE OK       MOCLDY    70  70 100 S5        29.95F
ROGERS AR      CLOUDY    67  65  93 S7        29.99F FOG
SILOAM SPRINGS CLOUDY    66  63  88 S8        30.00S
HARRISON AR    FOG       65  65 100 SE6       30.00F VSB 1/2
NEAR YELLVILLE CLOUDY    64  57  77 SE5       30.00S

......KANSAS AND MISSOURI......

CITY           SKY/WX    TMP DP  RH WIND       PRES   REMARKS
KANSAS CTY INT LGT RAIN  62  61  96 SE9       29.92F
DOWNTOWN KC    TSTM      63  61  93 SE5       29.91F FOG
COLUMBIA         N/A    N/A N/A N/A MISG      29.96F
SEDALIA        CLOUDY    63  60  90 S7        29.96R FOG
ST JOSEPH      CLOUDY    63  58  83 SE5       29.92F
ST LOUIS       PTCLDY    54  50  86 SE3       30.03F
SPIRIT OF STL  MOCLDY    51  50  96 SE3       30.01F
KIRKSVILLE     CLOUDY    55  53  93 SE6       29.99F
WICHITA        MOCLDY    66  64  93 S7        29.92F FOG
TOPEKA         CLOUDY    65  64  97 E6        29.90F
OLATHE         CLOUDY    64  64 100 NE5       29.90F

......TENNESSEE......

CITY           SKY/WX    TMP DP  RH WIND       PRES   REMARKS
MEMPHIS        CLEAR     63  58  83 E6        30.02S
NASHVILLE      CLOUDY    56  55  97 N5        30.04R FOG

......ARKANSAS.......

CITY           SKY/WX    TMP DP  RH WIND       PRES   REMARKS
FAYETTEVILLE   CLOUDY    67  67 100 S6        30.00S
FT SMITH       CLOUDY    70  67  90 NE8       29.98F
LITTLE ROCK    CLOUDY    64  59  83 NE5       30.01F

......OKLAHOMA.......

CITY           SKY/WX    TMP DP  RH WIND       PRES   REMARKS
TULSA          CLEAR     71  69  93 S10       29.93F FOG
PONCA CITY     CLEAR     70  67  90 CALM      29.93F FOG
MCALESTER      CLEAR     70  68  93 CALM      29.97F FOG
OKLAHOMA CITY  PTCLDY    70  67  90 S6        29.97S

......IOWA............

CITY           SKY/WX    TMP DP  RH WIND       PRES   REMARKS
DES MOINES     CLOUDY    58  50  75 SE7       29.97F
QUAD CITIES    CLOUDY    48  45  89 E3        30.03F

......ILLINOIS........

CITY           SKY/WX    TMP DP  RH WIND       PRES   REMARKS
QUINCY         MOCLDY    54  50  86 S6        30.01S
CHICAGO        PTCLDY    50  45  83 CALM      30.04S




USA.gov is the U.S. government's official web portal to all federal, state and local government web resources and services.